Search for airport 
image banner adimage banner ad
image banner ad

EVAP - Jelgava Amo Plant

Located in , Latvia

ICAO - EVAP, IATA -

Data provided by Airmate  

General information

Coordinates: N56°39'56" E23°46'45"
Elevation is 7 feet MSL.
 
Rated:
View ratings: [VIEW]


View others Airports in Jelgava (city)

Operational data

Open for public use
Current time UTC:
Current local time:
Weather at : EVRA - Riga ( 31 km )
METAR: EVRA 040020Z VRB01KT 5000 -RA BKN049 17/17 Q1010 NOSIG
TAF: TAF EVRA 032301Z 0400/0424 17006KT 9999 BKN045 TEMPO 0400/0408 4000 -RA BR TEMPO 0408/0421 BKN007 OVC045
View NOTAMs / SUP AIP / TFR affecting this airport [VIEW]
Communications frequencies: [VIEW]

Runways:

Airport contact information

Address: Latvia

Satellite view of EVAP